Thedford, NE

5:25 PM CDT on April 28, 2017 (GMT -0500)
Thedford

Weather History for KTIF - November, 2012

Change the Weather History Date:

Wednesday, November 21, 2012

  Actual Average (KANW) Record (KANW)
Temperature  
Mean Temperature 54 °F -  
Max Temperature 77 °F 42 °F 76 °F (2012)
Min Temperature 32 °F 23 °F 6 °F (2013)
Degree Days  
Heating Degree Days 10    
Growing Degree Days 4 (Base 50)    
Moisture  
Dew Point 20 °F    
Average Humidity 33    
Maximum Humidity 62    
Minimum Humidity 10    
Precipitation  
Precipitation 0.00 in - - ()
Sea Level Pressure  
Sea Level Pressure 29.88 in    
Wind  
Wind Speed 6 mph (SW)    
Max Wind Speed 14 mph    
Max Gust Speed 20 mph    
Visibility 10 miles    
Events      
Averages and records for this station are not official NWS values.
T = Trace of Precipitation, MM = Missing Value Source: NWS Daily Summary

Daily Weather History Graph

Daily Weather History Graph

Search for Another Location

Airport or City:

Trip Planner

Search our weather history database for the weather conditions in past years. The results will help you decide how hot, cold, wet, or windy it might be!

Date:

Astronomy

Nov. 21, 2012 Rise Set
Actual Time 7:39 AM CST 5:16 PM CST
Civil Twilight 7:09 AM CST 5:46 PM CST
Nautical Twilight 6:35 AM CST 6:20 PM CST
Astronomical Twilight 6:02 AM CST 6:54 PM CST
Moon 1:39 PM CST (11/21) 12:54 AM CST (11/21)
Length of Visible Light 10h 37m
Length of Day
9h 36m
First Quarter, 62% of the Moon is Illuminated
Nov 21
First Quarter
Nov 28
Full
Dec 6
Last Quarter
Dec 13
New
Dec 19
First Quarter

Hourly Weather History & Observations

Time (CST) Temp. Windchill Dew Point Humidity Pressure Visibility Wind Dir Wind Speed Gust Speed Precip Events Conditions
12:15 AM 45.7 °F 43.4 °F 21.9 °F 39% 30.03 in 10.0 mi WSW 4.6 mph - N/A   Clear
12:35 AM 43.2 °F - 22.1 °F 43% 30.03 in 10.0 mi Calm Calm - N/A   Clear
12:55 AM 41.5 °F - 20.8 °F 44% 30.02 in 10.0 mi Calm Calm - N/A   Clear
1:15 AM 42.3 °F 37.3 °F 21.2 °F 43% 30.02 in 10.0 mi SSW 8.1 mph - N/A   Clear
1:35 AM 42.3 °F 38.6 °F 21.2 °F 43% 30.01 in 10.0 mi SSW 5.8 mph - N/A   Clear
1:55 AM 42.1 °F 37.7 °F 21.2 °F 43% 30.00 in 10.0 mi SSW 6.9 mph - N/A   Clear
2:15 AM 42.1 °F 36.6 °F 21.0 °F 43% 30.00 in 10.0 mi SSW 9.2 mph - N/A   Clear
2:35 AM 42.1 °F 36.6 °F 20.8 °F 43% 30.00 in 10.0 mi SSW 9.2 mph - N/A   Clear
2:55 AM 41.4 °F 37.6 °F 20.7 °F 44% 30.00 in 10.0 mi South 5.8 mph - N/A   Clear
3:15 AM 37.8 °F - 20.7 °F 50% 30.00 in 10.0 mi Calm Calm - N/A   Clear
3:35 AM 38.7 °F 36.3 °F 20.5 °F 48% 29.99 in 10.0 mi SSW 3.5 mph - N/A   Clear
3:55 AM 37.9 °F - 20.8 °F 50% 29.98 in 10.0 mi Calm Calm - N/A   Clear
4:15 AM 37.4 °F 34.9 °F 20.5 °F 51% 29.98 in 10.0 mi WSW 3.5 mph - N/A   Clear
4:35 AM 39.2 °F - 20.3 °F 47% 29.98 in 10.0 mi Calm Calm - N/A   Clear
4:55 AM 37.9 °F - 20.3 °F 49% 29.98 in 10.0 mi Calm Calm - N/A   Clear
5:15 AM 38.7 °F 33.6 °F 20.3 °F 48% 29.97 in 10.0 mi SW 6.9 mph - N/A   Clear
5:35 AM 39.2 °F 35.0 °F 20.1 °F 46% 29.97 in 10.0 mi SW 5.8 mph - N/A   Clear
5:55 AM 36.5 °F 33.9 °F 20.5 °F 52% 29.96 in 10.0 mi WSW 3.5 mph - N/A   Clear
6:15 AM 34.2 °F - 20.3 °F 57% 29.95 in 10.0 mi Calm Calm - N/A   Clear
6:35 AM 32.2 °F - 20.3 °F 62% 29.95 in 10.0 mi Calm Calm - N/A   Clear
6:55 AM 33.6 °F 26.8 °F 20.1 °F 58% 29.96 in 10.0 mi West 8.1 mph - N/A   Clear
7:15 AM 33.3 °F 30.2 °F 19.9 °F 58% 29.95 in 10.0 mi SE 3.5 mph - N/A   Clear
7:35 AM 33.1 °F - 19.6 °F 58% 29.96 in 10.0 mi Calm Calm - N/A   Clear
7:55 AM 32.4 °F - 19.6 °F 59% 29.96 in 10.0 mi Calm Calm - N/A   Clear
8:15 AM 33.4 °F - 19.9 °F 58% 29.96 in 10.0 mi Calm Calm - N/A   Clear
8:35 AM 38.3 °F 35.9 °F 21.0 °F 50% 29.94 in 10.0 mi South 3.5 mph - N/A   Clear
8:55 AM 42.6 °F - 20.3 °F 41% 29.94 in 10.0 mi Calm Calm - N/A   Clear
9:15 AM 45.0 °F 40.6 °F 20.3 °F 38% 29.95 in 10.0 mi SSW 8.1 mph - N/A   Clear
9:35 AM 48.0 °F - 20.3 °F 33% 29.93 in 10.0 mi SSW 6.9 mph - N/A   Clear
9:55 AM 50.9 °F - 20.8 °F 31% 29.93 in 10.0 mi Calm Calm - N/A   Clear
10:15 AM 54.5 °F - 21.2 °F 27% 29.92 in 10.0 mi SW 5.8 mph - N/A   Clear
10:35 AM 58.6 °F - 21.4 °F 24% 29.92 in 10.0 mi SW 8.1 mph - N/A   Clear
10:55 AM 61.2 °F - 21.2 °F 22% 29.91 in 10.0 mi SSW 6.9 mph - N/A   Clear
11:15 AM 64.0 °F - 21.2 °F 19% 29.91 in 10.0 mi SSW 6.9 mph - N/A   Clear
11:35 AM 66.2 °F - 21.0 °F 18% 29.89 in 10.0 mi SSW 6.9 mph - N/A   Clear
11:55 AM 69.3 °F - 20.1 °F 15% 29.87 in 10.0 mi SSW 8.1 mph - N/A   Clear
12:15 PM 70.5 °F - 20.1 °F 15% 29.87 in 10.0 mi SW 10.4 mph - N/A   Clear
12:35 PM 71.6 °F - 19.6 °F 14% 29.85 in 10.0 mi SW 9.2 mph - N/A   Clear
12:55 PM 72.9 °F - 19.9 °F 14% 29.84 in 10.0 mi SW 9.2 mph - N/A   Clear
1:15 PM 74.8 °F - 18.5 °F 12% 29.83 in 10.0 mi WSW 9.2 mph - N/A   Clear
1:35 PM 75.7 °F - 18.0 °F 11% 29.81 in 10.0 mi WSW 11.5 mph - N/A   Clear
1:55 PM 76.1 °F - 17.4 °F 11% 29.81 in 10.0 mi SW 11.5 mph - N/A   Clear
2:15 PM 76.3 °F - 15.3 °F 10% 29.80 in 10.0 mi West 13.8 mph 17.3 mph N/A   Clear
2:35 PM 76.3 °F - 14.5 °F 10% 29.80 in 10.0 mi West 13.8 mph 19.6 mph N/A   Clear
2:55 PM 76.3 °F - 14.7 °F 10% 29.79 in 10.0 mi West 11.5 mph 16.1 mph N/A   Clear
3:15 PM 76.3 °F - 14.9 °F 10% 29.78 in 10.0 mi WSW 6.9 mph - N/A   Clear
3:35 PM 77.0 °F - 16.3 °F 10% 29.78 in 10.0 mi SW 6.9 mph - N/A   Clear
3:55 PM 75.9 °F - 16.5 °F 11% 29.78 in 10.0 mi South 11.5 mph - N/A   Clear
4:15 PM 73.8 °F - 17.4 °F 12% 29.78 in 10.0 mi South 10.4 mph - N/A   Clear
4:35 PM 71.4 °F - 16.7 °F 12% 29.78 in 10.0 mi South 9.2 mph - N/A   Clear
4:55 PM 68.5 °F - 18.5 °F 15% 29.79 in 10.0 mi South 11.5 mph - N/A   Clear
5:15 PM 65.7 °F - 19.0 °F 17% 29.79 in 10.0 mi South 13.8 mph - N/A   Clear
5:35 PM 62.2 °F - 21.2 °F 21% 29.79 in 10.0 mi South 13.8 mph - N/A   Clear
5:55 PM 59.5 °F - 21.7 °F 23% 29.79 in 10.0 mi South 10.4 mph - N/A   Clear
6:15 PM 57.6 °F - 21.7 °F 25% 29.80 in 10.0 mi SSW 9.2 mph - N/A   Clear
6:35 PM 55.4 °F - 21.4 °F 27% 29.80 in 10.0 mi SSW 12.7 mph - N/A   Clear
6:55 PM 55.6 °F - 21.6 °F 27% 29.80 in 10.0 mi SSW 11.5 mph - N/A   Clear
7:15 PM 53.4 °F - 21.2 °F 28% 29.80 in 10.0 mi South 10.4 mph - N/A   Clear
7:35 PM 53.8 °F - 20.7 °F 27% 29.79 in 10.0 mi SSW 13.8 mph - N/A   Clear
7:55 PM 52.3 °F - 20.3 °F 28% 29.79 in 10.0 mi SSW 9.2 mph - N/A   Clear
8:15 PM 51.1 °F - 20.3 °F 30% 29.79 in 10.0 mi SSW 6.9 mph - N/A   Clear
8:35 PM 50.5 °F - 20.1 °F 30% 29.78 in 10.0 mi SSW 8.1 mph - N/A   Clear
8:55 PM 49.8 °F - 20.1 °F 31% 29.78 in 10.0 mi SW 8.1 mph - N/A   Clear
9:15 PM 51.8 °F - 20.1 °F 29% 29.78 in 10.0 mi SSW 11.5 mph - N/A   Clear
9:35 PM 51.8 °F - 19.8 °F 28% 29.78 in 10.0 mi SW 11.5 mph - N/A   Clear
9:55 PM 49.3 °F - 19.4 °F 31% 29.78 in 10.0 mi West 4.6 mph - N/A   Clear
10:15 PM 48.2 °F - 19.4 °F 32% 29.77 in 10.0 mi SW 6.9 mph - N/A   Clear
10:35 PM 43.5 °F 41.9 °F 19.4 °F 38% 29.78 in 10.0 mi NW 3.5 mph - N/A   Clear
10:55 PM 45.0 °F 43.5 °F 19.4 °F 36% 29.78 in 10.0 mi SW 3.5 mph - N/A   Clear
11:15 PM 44.8 °F 42.4 °F 19.4 °F 36% 29.78 in 10.0 mi West 4.6 mph - N/A   Clear
11:35 PM 45.0 °F 43.5 °F 20.3 °F 38% 29.77 in 10.0 mi West 3.5 mph - N/A   Clear
11:55 PM 43.2 °F - 20.3 °F 40% 29.78 in 10.0 mi Calm Calm - N/A   Clear